Date,TemperatureHighF,TemperatureAvgF,TemperatureLowF,DewpointHighF,DewpointAvgF,DewpointLowF,HumidityHigh,HumidityAvg,HumidityLow,PressureMaxIn,PressureMinIn,WindSpeedMaxMPH,WindSpeedAvgMPH,GustSpeedMaxMPH,PrecipitationSumIn
2013-1-1,67,61,55,-100,-100,-100,0,0,100,30.07,29.91,17,7,23,0.00
2013-1-2,56,50,44,-100,-100,-100,0,0,100,30.17,29.98,16,10,21,0.00
2013-1-3,47,42,39,-100,-100,-100,0,0,100,30.33,30.15,14,9,19,0.00
2013-1-4,55,45,35,-100,-100,-100,0,0,100,30.41,30.29,14,7,17,0.00
2013-1-5,52,48,44,-100,-100,-100,0,0,100,30.34,30.21,13,6,15,0.00
2013-1-6,50,48,46,-100,-100,-100,0,0,100,30.25,30.16,13,7,17,0.00
2013-1-7,61,50,40,-100,-100,-100,0,0,100,30.30,30.16,12,7,16,0.00
2013-1-8,65,57,49,-100,-100,-100,0,0,100,30.22,30.11,10,-2,12,0.00
2013-1-9,64,61,58,-100,-100,-100,0,0,100,30.22,30.14,10,-22,13,0.00
2013-1-10,68,62,58,-100,-100,-100,0,0,100,30.22,29.98,24,8,38,0.00
2013-1-11,71,65,59,-100,-100,-100,0,0,100,30.12,30.04,10,-44,15,0.00
2013-1-12,69,65,62,-100,-100,-100,0,0,100,30.08,29.95,11,-17,16,0.00
2013-1-13,70,67,65,-100,-100,-100,0,0,100,29.98,29.92,13,10,21,0.00
2013-1-14,64,53,45,-100,-100,-100,0,0,100,30.09,30.00,15,8,21,0.00
2013-1-15,64,54,46,-100,-100,-100,0,0,100,30.05,29.90,9,-2,13,0.00
2013-1-16,59,49,43,-100,-100,-100,0,0,100,30.03,29.90,11,8,17,0.00
2013-1-17,50,43,37,-100,-100,-100,0,0,100,30.33,30.02,21,12,30,0.00
2013-1-18,57,47,38,-100,-100,-100,0,0,100,30.49,30.32,16,8,20,0.00
2013-1-19,61,50,39,-100,-100,-100,0,0,100,30.37,30.21,8,-21,10,0.00
2013-1-20,63,53,43,-100,-100,-100,0,0,100,30.25,30.10,9,-38,10,0.00
2013-1-21,65,56,47,-100,-100,-100,0,0,100,30.19,30.09,11,6,16,0.00
2013-1-22,57,49,41,-100,-100,-100,0,0,100,30.35,30.18,12,-1,15,0.00
2013-1-23,64,51,42,-100,-100,-100,0,0,100,30.38,30.26,12,-24,15,0.00
2013-1-24,69,59,52,-100,-100,-100,0,0,100,30.31,30.19,12,4,15,0.00
2013-1-25,69,58,51,-100,-100,-100,0,0,100,30.26,30.13,12,-149,18,0.00
2013-1-26,64,60,55,-100,-100,-100,0,0,100,30.22,30.14,8,-52,11,0.00
2013-1-27,68,59,52,-100,-100,-100,0,0,100,30.29,30.21,10,-17,14,0.00
2013-1-28,70,62,55,-100,-100,-100,0,0,100,30.26,30.13,10,-38,15,0.00
2013-1-29,68,65,61,-100,-100,-100,0,0,100,30.13,29.85,15,8,26,0.00
2013-1-30,74,61,46,-100,-100,-100,0,0,100,30.08,29.66,21,12,44,0.00
2013-1-31,58,52,41,-100,-100,-100,0,0,100,30.29,30.08,14,6,20,0.00
2013-2-1,58,50,45,-100,-100,-100,0,0,100,30.37,30.27,14,-1,17,0.00
2013-2-2,59,50,39,-100,-100,-100,0,0,100,30.34,30.15,11,6,16,0.00
2013-2-3,66,56,48,-100,-100,-100,0,0,100,30.23,30.09,11,5,17,0.00
2013-2-4,60,54,48,-100,-100,-100,0,0,100,30.10,29.96,6,-53,9,0.00
2013-2-5,66,60,55,-100,-100,-100,0,0,100,30.01,29.93,11,-45,15,0.00
2013-2-6,66,59,54,-100,-100,-100,0,0,100,30.13,29.99,9,-80,12,0.00
2013-2-7,75,65,59,-100,-100,-100,0,0,100,30.01,29.77,23,9,35,0.00
2013-2-8,67,59,55,-100,-100,-100,0,0,100,30.13,29.92,16,-29,21,0.00
2013-2-9,62,55,45,-100,-100,-100,0,0,100,30.23,30.09,13,7,18,0.00
2013-2-10,70,63,57,-100,-100,-100,0,0,100,30.10,29.94,18,9,27,0.00
2013-2-11,68,61,57,-100,-100,-100,0,0,100,30.09,29.97,16,-27,22,0.00
2013-2-12,72,62,56,-100,-100,-100,0,0,100,30.04,29.73,16,8,25,0.00
2013-2-13,70,55,46,-100,-100,-100,0,0,100,30.04,29.74,14,7,19,0.00
2013-2-14,57,48,42,-100,-100,-100,0,0,100,30.14,30.01,10,5,14,0.00
2013-2-15,62,52,41,-100,-100,-100,0,0,100,30.15,30.01,10,-2,15,0.00
2013-2-16,52,48,39,-100,-100,-100,0,0,100,30.26,30.06,20,10,31,0.00
2013-2-17,51,42,33,-100,-100,-100,0,0,100,30.37,30.24,9,5,14,0.00
2013-2-18,60,56,48,-100,-100,-100,0,0,100,30.27,30.00,15,8,21,0.00
2013-2-19,66,60,50,-100,-100,-100,0,0,100,30.18,29.94,17,10,23,0.00
2013-2-20,57,49,42,-100,-100,-100,0,0,100,30.25,30.06,17,8,21,0.00
2013-2-21,65,56,46,-100,-100,-100,0,0,100,30.06,29.85,14,7,21,0.00
2013-2-22,69,65,62,-100,-100,-100,0,0,100,29.95,29.83,13,0,21,0.00
2013-2-23,61,58,55,-100,-100,-100,0,0,100,29.93,29.72,16,7,18,0.00
2013-2-24,69,58,49,-100,-100,-100,0,0,100,29.97,29.80,14,6,19,0.00
2013-2-25,67,61,57,-100,-100,-100,0,0,100,29.83,29.47,22,-3,35,0.00
2013-2-26,66,56,51,-100,-100,-100,0,0,100,29.90,29.48,15,8,22,0.00
2013-2-27,63,54,48,-100,-100,-100,0,0,100,30.00,29.88,16,-9,21,0.00
2013-2-28,58,52,45,-100,-100,-100,0,0,100,30.07,29.95,15,8,21,0.00
2013-3-1,57,48,42,-100,-100,-100,0,0,100,30.13,29.97,13,6,24,0.00
2013-3-2,46,40,35,-100,-100,-100,0,0,100,30.18,30.07,17,9,24,0.00
2013-3-3,53,42,32,-100,-100,-100,0,0,100,30.22,30.10,13,7,19,0.00
2013-3-4,58,52,39,-100,-100,-100,0,0,100,30.15,29.96,13,-28,17,0.00
2013-3-5,73,64,51,-100,-100,-100,0,0,100,30.12,29.90,16,8,26,0.00
2013-3-6,58,50,42,-100,-100,-100,0,0,100,30.25,30.11,16,8,23,0.00
2013-3-7,59,48,40,-100,-100,-100,0,0,100,30.32,30.19,11,6,15,0.00
2013-3-8,71,55,43,-100,-100,-100,0,0,100,30.28,30.15,11,-24,16,0.00
2013-3-9,67,58,51,-100,-100,-100,0,0,100,30.17,30.01,14,-36,18,0.00
2013-3-10,68,63,58,-100,-100,-100,0,0,100,30.03,29.91,15,9,19,0.00
2013-3-11,65,57,48,-100,-100,-100,0,0,100,29.95,29.82,19,8,26,0.00
2013-3-12,64,53,42,-100,-100,-100,0,0,100,30.16,29.95,15,8,22,0.00
2013-3-13,64,56,46,-100,-100,-100,0,0,100,30.33,30.16,17,8,23,0.00
2013-3-14,64,52,42,-100,-100,-100,0,0,100,30.42,30.25,16,-280,20,0.00
2013-3-15,71,58,48,-100,-100,-100,0,0,100,30.28,30.11,15,-248,20,0.00
2013-3-16,74,63,54,-100,-100,-100,0,0,100,30.11,29.97,16,-14,23,0.00
2013-3-17,68,62,56,-100,-100,-100,0,0,100,29.99,29.87,11,-309,16,0.00
2013-3-18,70,66,61,-100,-100,-100,0,0,100,29.89,29.76,15,-1,21,0.00
2013-3-19,76,66,57,-100,-100,-100,0,0,100,30.02,29.84,19,8,27,0.00
2013-3-20,64,60,53,-100,-100,-100,0,0,100,30.08,29.95,17,9,23,0.00
2013-3-21,62,54,45,-100,-100,-100,0,0,100,30.05,29.86,12,-15,17,0.00
2013-3-22,64,59,53,-100,-100,-100,0,0,100,29.90,29.82,17,9,20,0.00
2013-3-23,71,65,61,-100,-100,-100,0,0,100,29.86,29.56,15,5,21,0.00
2013-3-24,79,68,51,-100,-100,-100,0,0,100,29.91,29.53,22,-4,30,0.00
2013-3-25,58,48,39,-100,-100,-100,0,0,100,30.19,29.91,19,11,27,0.00
2013-3-26,55,46,37,-100,-100,-100,0,0,100,30.34,30.19,15,9,22,0.00
2013-3-27,58,47,36,-100,-100,-100,0,0,100,30.42,30.25,13,6,17,0.00
2013-3-28,64,53,42,-100,-100,-100,0,0,100,30.34,30.21,12,5,18,0.00
2013-3-29,64,57,45,-100,-100,-100,0,0,100,30.31,30.19,14,-30,18,0.00
2013-3-30,71,62,54,-100,-100,-100,0,0,100,30.19,30.01,12,-134,17,0.00
2013-3-31,75,64,59,-100,-100,-100,0,0,100,30.05,29.86,15,-36,25,0.00
2013-4-1,71,63,57,-100,-100,-100,0,0,100,30.05,29.89,10,-51,13,0.00
2013-4-2,74,64,54,-100,-100,-100,0,0,100,30.10,29.98,12,-52,20,0.00
2013-4-3,65,60,54,-100,-100,-100,0,0,100,30.04,29.67,54,11,59,0.00
2013-4-4,68,59,56,-100,-100,-100,0,0,100,29.93,29.82,14,6,19,0.00
2013-4-5,67,57,50,-100,-100,-100,0,0,100,30.08,29.91,18,9,22,0.00
2013-4-6,68,60,49,-100,-100,-100,0,0,100,30.14,30.06,13,-37,18,0.00
2013-4-7,70,62,52,-100,-100,-100,0,0,100,30.12,30.01,9,-17,11,0.00
2013-4-8,73,68,63,-100,-100,-100,0,0,100,30.05,29.95,13,-2,19,0.00
2013-4-9,75,71,67,-100,-100,-100,0,0,100,30.06,29.94,11,5,14,0.00
2013-4-10,76,71,67,-100,-100,-100,0,0,100,30.02,29.86,13,6,21,0.00
2013-4-11,76,71,61,-100,-100,-100,0,0,100,29.87,29.55,22,10,36,0.00
2013-4-12,74,63,53,-100,-100,-100,0,0,100,29.94,29.75,15,8,21,0.00
2013-4-13,78,65,54,-100,-100,-100,0,0,100,30.03,29.88,13,5,18,0.00
2013-4-14,67,63,58,-100,-100,-100,0,0,100,29.92,29.73,24,-6,39,0.00
2013-4-15,76,69,65,-100,-100,-100,0,0,100,30.02,29.79,8,-54,12,0.00
2013-4-16,77,73,68,-100,-100,-100,0,0,100,30.09,29.99,14,-2,18,0.00
2013-4-17,78,73,69,-100,-100,-100,0,0,100,30.10,29.98,13,-2,17,0.00
2013-4-18,76,73,68,-100,-100,-100,0,0,100,29.99,29.84,15,8,21,0.00
2013-4-19,76,58,49,-100,-100,-100,0,0,100,30.14,29.78,16,9,25,0.00
2013-4-20,67,56,44,-100,-100,-100,0,0,100,30.24,30.09,16,8,21,0.00
2013-4-21,72,62,53,-100,-100,-100,0,0,100,30.19,30.08,13,6,16,0.00
2013-4-22,74,66,57,-100,-100,-100,0,0,100,30.12,30.02,12,-1,14,0.00
2013-4-23,72,66,62,-100,-100,-100,0,0,100,30.09,30.03,12,8,16,0.00
2013-4-24,71,70,66,-100,-100,-100,0,0,100,30.11,30.00,16,-68,25,0.00
2013-4-25,73,64,56,-100,-100,-100,0,0,100,30.26,30.11,15,10,18,0.00
2013-4-26,77,67,57,-100,-100,-100,0,0,100,30.28,30.19,9,-2,13,0.00
2013-4-27,75,70,62,-100,-100,-100,0,0,100,30.19,30.03,14,-22,20,0.00
2013-4-28,74,72,69,-100,-100,-100,0,0,100,30.06,29.93,13,-9,19,0.00
2013-4-29,80,72,66,-100,-100,-100,0,0,100,29.97,29.86,10,-23,14,0.00
2013-4-30,77,72,68,-100,-100,-100,0,0,100,29.93,29.86,12,6,15,0.00
2013-5-1,73,70,63,-100,-100,-100,0,0,100,29.94,29.83,26,14,30,0.00
2013-5-2,73,68,63,-100,-100,-100,0,0,100,29.96,29.85,23,10,28,0.00
2013-5-3,71,65,50,-100,-100,-100,0,0,100,29.93,29.79,17,1,28,0.00
2013-5-4,68,57,46,-100,-100,-100,0,0,100,29.94,29.84,20,10,31,0.00
2013-5-5,68,60,55,-100,-100,-100,0,0,100,29.98,29.83,17,8,27,0.00
2013-5-6,71,61,51,-100,-100,-100,0,0,100,29.99,29.88,13,6,21,0.00
2013-5-7,72,64,57,-100,-100,-100,0,0,100,30.01,29.93,9,5,13,0.00
2013-5-8,77,72,67,-100,-100,-100,0,0,100,30.09,30.02,11,6,17,0.00
2013-5-9,75,70,64,-100,-100,-100,0,0,100,30.13,30.02,11,-99,17,0.00
2013-5-10,76,70,67,-100,-100,-100,0,0,100,30.11,29.87,24,-7,34,0.00
2013-5-11,71,68,65,-100,-100,-100,0,0,100,30.03,29.92,9,-31,15,0.00
2013-5-12,78,70,63,-100,-100,-100,0,0,100,30.10,29.97,15,7,20,0.00
2013-5-13,75,66,55,-100,-100,-100,0,0,100,30.25,30.09,13,7,18,0.00
2013-5-14,76,69,60,-100,-100,-100,0,0,100,30.26,30.14,12,-44,17,0.00
2013-5-15,78,71,63,-100,-100,-100,0,0,100,30.19,30.01,11,-49,16,0.00
2013-5-16,76,68,68,-100,-100,-100,0,0,100,30.04,29.96,13,-7,20,0.00
2013-5-17,77,74,73,-100,-100,-100,0,0,100,30.04,29.95,14,9,20,0.00
2013-5-18,79,76,73,-100,-100,-100,0,0,100,30.06,29.98,15,7,21,0.00
2013-5-19,78,76,73,-100,-100,-100,0,0,100,30.02,29.97,11,6,15,0.00
2013-5-20,80,77,73,-100,-100,-100,0,0,100,30.03,29.94,14,7,19,0.00
2013-5-21,81,77,73,-100,-100,-100,0,0,100,29.98,29.86,13,6,19,0.00
2013-5-22,82,77,73,-100,-100,-100,0,0,100,30.00,29.87,21,-3,27,0.00
2013-5-23,84,78,71,-100,-100,-100,0,0,100,30.02,29.91,9,-9,13,0.00
2013-5-24,87,79,74,-100,-100,-100,0,0,100,30.14,29.99,16,8,20,0.00
2013-5-25,82,74,66,-100,-100,-100,0,0,100,30.21,30.11,14,7,18,0.00
2013-5-26,82,75,67,-100,-100,-100,0,0,100,30.19,30.10,13,-57,16,0.00
2013-5-27,80,77,75,-100,-100,-100,0,0,100,30.14,30.05,14,7,20,0.00
2013-5-28,81,76,70,-100,-100,-100,0,0,100,30.07,30.01,14,-13,20,0.00
2013-5-29,83,78,74,-100,-100,-100,0,0,100,30.04,29.98,13,8,19,0.00
2013-5-30,83,79,76,-100,-100,-100,0,0,100,30.04,29.97,16,10,22,0.00
2013-5-31,82,79,77,-100,-100,-100,0,0,100,30.03,29.96,13,9,20,0.00
2013-6-1,82,79,76,-100,-100,-100,0,0,100,29.99,29.92,14,10,20,0.00
2013-6-2,84,79,73,-100,-100,-100,0,0,100,29.96,29.83,14,7,21,0.00
2013-6-3,83,78,73,-100,-100,-100,0,0,100,29.91,29.82,15,-23,23,0.00
2013-6-4,85,80,75,-100,-100,-100,0,0,100,29.92,29.86,13,-1,18,0.00
2013-6-5,84,80,70,-100,-100,-100,0,0,100,29.94,29.82,24,9,33,0.00
2013-6-6,88,76,68,-100,-100,-100,0,0,100,29.87,29.70,14,7,21,0.00
2013-6-7,86,77,71,-100,-100,-100,0,0,100,29.87,29.74,12,5,15,0.00
2013-6-8,84,79,72,-100,-100,-100,0,0,100,30.01,29.86,22,-7,33,0.00
2013-6-9,78,75,71,-100,-100,-100,0,0,100,30.01,29.91,21,10,30,0.00
2013-6-10,80,77,72,-100,-100,-100,0,0,100,30.04,29.94,13,5,26,0.00
2013-6-11,89,82,76,-100,-100,-100,0,0,100,30.07,29.98,10,4,16,0.00
2013-6-12,91,83,77,-100,-100,-100,0,0,100,30.06,29.97,10,-44,14,0.00
2013-6-13,94,85,80,-100,-100,-100,0,0,100,30.01,29.83,11,6,15,0.00
2013-6-14,90,84,77,-100,-100,-100,0,0,100,29.92,29.82,15,7,18,0.00
2013-6-15,87,82,73,-100,-100,-100,0,0,100,29.99,29.91,9,5,14,0.00
2013-6-16,87,83,80,-100,-100,-100,0,0,100,30.03,29.96,11,6,13,0.00
2013-6-17,89,84,79,-100,-100,-100,0,0,100,29.99,29.92,12,5,21,0.00
2013-6-18,90,83,77,-100,-100,-100,0,0,100,29.98,29.86,12,7,18,0.00
2013-6-19,86,80,73,-100,-100,-100,0,0,100,30.01,29.90,10,-18,16,0.00
2013-6-20,89,81,76,-100,-100,-100,0,0,100,30.07,29.97,11,-16,13,0.00
2013-6-22,87,84,80,-100,-100,-100,0,0,100,30.09,29.98,11,6,16,0.00
2013-6-23,83,80,77,-100,-100,-100,0,0,100,30.07,30.00,17,-1,20,0.00
2013-6-24,85,81,75,-100,-100,-100,0,0,100,30.14,30.05,15,-4,22,0.00
2013-6-25,86,82,76,-100,-100,-100,0,0,100,30.10,30.00,10,-11,15,0.00
2013-6-26,86,82,77,-100,-100,-100,0,0,100,30.06,29.95,12,5,17,0.00
2013-6-27,92,84,78,-100,-100,-100,0,0,100,29.99,29.88,9,5,15,0.00
2013-6-28,94,86,81,-100,-100,-100,0,0,100,29.90,29.72,11,6,18,0.00
2013-6-29,89,83,76,-100,-100,-100,0,0,100,29.77,29.64,14,5,19,0.00
2013-6-30,91,82,76,-100,-100,-100,0,0,100,29.75,29.67,9,-4,15,0.00
2013-7-1,89,82,74,-100,-100,-100,0,0,100,29.87,29.73,10,6,15,0.00
2013-7-2,88,81,73,-100,-100,-100,0,0,100,29.97,29.86,9,4,13,0.00
2013-7-3,85,80,76,-100,-100,-100,0,0,100,29.99,29.90,16,8,21,0.00
2013-7-4,83,78,74,-100,-100,-100,0,0,100,29.98,29.89,20,9,25,0.00
2013-7-5,79,77,75,-100,-100,-100,0,0,100,30.06,29.96,18,9,23,0.00
2013-7-6,79,75,72,-100,-100,-100,0,0,100,30.04,29.96,14,-3,15,0.00
2013-7-7,80,77,73,-100,-100,-100,0,0,100,30.09,29.99,10,-4,22,0.00
2013-7-8,83,78,76,-100,-100,-100,0,0,100,30.15,30.06,9,-48,12,0.00
2013-7-9,86,80,74,-100,-100,-100,0,0,100,30.16,30.05,11,-36,15,0.00
2013-7-10,86,79,77,-100,-100,-100,0,0,100,30.09,29.94,11,-39,17,0.00
2013-7-11,81,77,73,-100,-100,-100,0,0,100,29.98,29.85,12,-21,20,0.00
2013-7-12,87,78,73,-100,-100,-100,0,0,100,29.90,29.82,10,-4,16,0.00
2013-7-13,85,78,74,-100,-100,-100,0,0,100,29.95,29.84,26,-58,30,0.00
2013-7-14,87,79,72,-100,-100,-100,0,0,100,30.00,29.88,19,-10,21,0.00
2013-7-15,83,80,75,-100,-100,-100,0,0,100,30.10,29.99,14,-1,17,0.00
2013-7-16,86,80,75,-100,-100,-100,0,0,100,30.16,30.06,19,11,23,0.00
2013-7-17,89,82,76,-100,-100,-100,0,0,100,30.19,30.08,12,6,19,0.00
2013-7-18,87,81,77,-100,-100,-100,0,0,100,30.11,29.98,21,6,24,0.00
2013-7-19,84,79,75,-100,-100,-100,0,0,100,30.05,29.93,17,6,35,0.00
2013-7-20,87,80,76,-100,-100,-100,0,0,100,29.98,29.89,11,5,15,0.00
2013-7-21,86,80,76,-100,-100,-100,0,0,100,30.04,29.96,13,5,25,0.00
2013-7-22,85,78,73,-100,-100,-100,0,0,100,30.04,29.98,19,5,28,0.00
2013-7-23,91,82,74,-100,-100,-100,0,0,100,30.02,29.89,12,-30,21,0.00
2013-7-24,90,82,74,-100,-100,-100,0,0,100,29.93,29.84,13,-9,22,0.00
2013-7-25,90,81,74,-100,-100,-100,0,0,100,29.98,29.84,10,5,15,0.00
2013-7-26,91,82,76,-100,-100,-100,0,0,100,30.03,29.93,9,4,15,0.00
2013-7-27,84,79,73,-100,-100,-100,0,0,100,29.95,29.86,15,5,26,0.00
2013-7-28,86,80,73,-100,-100,-100,0,0,100,29.97,29.84,11,-12,18,0.00
2013-7-29,89,82,77,-100,-100,-100,0,0,100,30.09,29.95,22,4,27,0.00
2013-7-30,87,84,79,-100,-100,-100,0,0,100,30.13,30.03,10,5,17,0.00
2013-7-31,91,83,80,-100,-100,-100,0,0,100,30.07,29.95,18,5,22,0.00
2013-8-1,91,81,74,-100,-100,-100,0,0,100,29.98,29.88,21,5,28,0.00
2013-8-2,91,82,75,-100,-100,-100,0,0,100,29.99,29.89,9,-4,13,0.00
2013-8-3,90,84,78,-100,-100,-100,0,0,100,30.04,29.95,9,-4,11,0.00
2013-8-4,94,85,81,-100,-100,-100,0,0,100,30.05,29.94,19,-19,21,0.00
2013-8-5,88,82,76,-100,-100,-100,0,0,100,30.01,29.92,14,-14,21,0.00
2013-8-6,92,82,75,-100,-100,-100,0,0,100,29.98,29.86,22,5,30,0.00
2013-8-7,90,82,76,-100,-100,-100,0,0,100,29.96,29.88,11,5,15,0.00
2013-8-8,89,84,80,-100,-100,-100,0,0,100,29.96,29.89,11,6,15,0.00
2013-8-9,88,84,79,-100,-100,-100,0,0,100,30.02,29.91,15,8,23,0.00
2013-8-10,85,83,79,-100,-100,-100,0,0,100,30.08,29.99,14,6,21,0.00
2013-8-11,88,83,78,-100,-100,-100,0,0,100,30.11,30.04,15,5,16,0.00
2013-8-31,88,69,81,-100,-100,-100,0,0,100,29.93,29.85,11,6,16,0.00
2013-9-1,83,82,81,-100,-100,-100,0,0,100,29.91,29.84,8,5,12,0.00
2013-9-2,87,83,79,-100,-100,-100,0,0,100,29.96,29.86,9,4,12,0.00
2013-9-3,85,79,73,-100,-100,-100,0,0,100,29.92,29.88,8,4,15,0.00
2013-9-4,87,80,74,-100,-100,-100,0,0,100,30.04,29.93,9,-108,12,0.00
2013-9-5,88,82,77,-100,-100,-100,0,0,100,30.09,30.01,7,4,10,0.00
2013-9-6,89,84,76,-100,-100,-100,0,0,100,30.07,29.97,4,3,7,0.00
2013-9-7,89,73,76,-100,-100,-100,0,0,100,30.03,29.94,7,4,9,0.00
2013-9-8,87,81,75,-100,-100,-100,0,0,100,29.96,29.91,8,4,12,0.00
2013-9-9,87,82,77,-100,-100,-100,0,0,100,30.01,29.94,5,3,7,0.00
2013-9-10,88,82,79,-100,-100,-100,0,0,100,30.05,30.01,4,4,8,0.00
2013-11-21,67,61,57,-100,-100,-100,0,0,100,30.21,30.14,11,8,13,0.00
2013-11-22,71,68,64,-100,-100,-100,0,0,100,30.19,30.11,7,5,9,0.00
2013-11-23,67,53,52,-100,-100,-100,0,0,100,30.23,30.13,17,12,25,0.00
2013-11-24,52,47,42,-100,-100,-100,0,0,100,30.35,30.26,18,13,26,0.00
2013-11-25,59,51,44,-100,-100,-100,0,0,100,30.28,29.88,15,11,19,0.00
2013-11-26,63,56,48,-100,-100,-100,0,0,100,29.86,29.69,11,9,17,0.00
2013-11-27,44,42,41,-100,-100,-100,0,0,100,30.23,29.89,15,12,23,0.00
2013-12-27,54,49,44,-100,-100,-100,0,0,100,30.32,30.26,9,8,13,0.00
2013-12-28,47,38,47,-100,-100,-100,0,0,100,30.19,29.92,13,9,15,0.00
2013-12-29,52,50,48,-100,-100,-100,0,0,100,30.06,29.94,11,7,14,0.00
2013-12-30,55,47,43,-100,-100,-100,0,0,100,30.15,30.09,3,-248,4,0.00
2013-12-31,49,46,44,-100,-100,-100,0,0,100,30.32,30.27,9,8,13,0.00
2014-1-1,58,50,44,-100,-100,-100,0,0,100,30.30,30.03,7,4,8,0.00
2014-1-2,59,50,37,-100,-100,-100,0,0,100,30.27,29.96,21,10,30,0.00